SCP
0 0 0 0 0 0 0 0 0 0 0 0 0 0 0 0 0 0 0 0 0 0 0 0 0 0 0 0 0 0 0 0 0 0 0 0 0 0 0 0 0 0 0 0
0 0 0 0 0 0 0 0 0 0 0 0 0 0 0 0 0 0 0 0 0 0 0 0 0 0 0 0 0 0 0 0 0 0 0 0 0 0 0 0 0 0 0 0
0 0 0 0 0 0 0 0 0 0 0 0 0 0 0 0 0 0 0 0 0 0 0 0 0 0 0 0 0 0 0 0 0 0 0 0 0 0 0 0 0 0 0 0
0 0 0 0 0 0 0 0 0 0 0 0 0 0 0 0 0 0 0 0 0 0 0 0 0 0 0 0 0 0 0 0 0 0 0 0 0 0 0 0 0 0 0 0
0 0 0 0 0 0 0 0 0 0 0 0 0 0 0 0 0 0 0 0 0 0 0 0 0 0 0 0 0 0 0 0 0 0 0 0 0 0 0 0 0 0 0 0
0 0 0 0 0 0 0 0 0 0 0 0 0 0 0 0 0 0 0 0 0 0 0 0 0 0 0 0 0 0 0 0 0 0 0 0 0 0 0 0 0 0 0 0
0 0 0 0 0 0 0 0 0 0 0 0 0 0 0 0 0 0 0 0 0 0 0 0 0 0 0 0 0 0 0 0 0 0 0 0 0 0 0 0 0 0 0 0
0 0 0 0 0 0 0 0 0 0 0 0 0 0 0 0 0 0 0 0 0 0 0 0 0 0 0 0 0 0 0 0 0 0 0 0 0 0 0 0 0 0 0 0
0 0 0 0 0 0 0 0 0 0 0 0 0 0 0 0 0 0 0 0 0 0 0 0 0 0 0 0 0 0 0 0 0 0 0 0 0 0 0 0 0 0 0 0
0 0 0 0 0 0 0 0 0 0 0 0 0 0 0 -0 0 0 -0 0 0 0 0 0 0 0 0 0 0 0 0 0 0 0 0 0 0 0 0 0 0 0 0 0
0 0 0 0 0 0 0 0 0 0 0 0 0 0 0 -0 -0 0 0 0 0 0 0 0 0 0 0 0 0 0 0 0 0 0 0 0 0 0 0 0 0 0 0 0
0 0 0 0 0 0 0 0 0 0 0 0 0 0 0 -0 -0 0 0 0 0 0 0 0 0 0 0 0 0 0 0 0 0 0 0 0 0 0 0 0 0 0 0 0
0 0 0 0 0 0 0 0 0 0 0 0 0 0 0 0 -0 0 0 0 0 0 0 0 0 0 0 0 0 0 0 0 0 0 0 0 0 0 0 0 0 0 0 0
0 0 0 0 0 0 0 0 0 0 0 0 0 0 0 0 -0 -0 0 0 0 -0 0 0 0 0 0 0 0 0 0 0 0 0 0 0 0 0 0 0 0 0 0 0
0 0 0 0 0 0 0 0 0 0 0 0 0 0 0 0 -0 -0 0 0 0 0 0 0 0 0 0 0 0 0 0 0 0 0 0 0 0 0 0 0 0 0 0 0
0 0 0 0 0 0 0 0 0 0 0 0 0 0 0 0 0 -0 0 0 0 0 0 0 0 0 0 0 0 0 0 0 0 0 0 0 0 0 0 0 0 0 0 0
0 0 0 0 0 0 0 0 0 0 0 0 0 0 0 0 0 0 -0 0 0 0 0 0 0 0 0 0 0 0 0 0 0 0 0 0 0 0 0 0 0 0 0 0
0 0 0 0 0 0 0 0 0 0 0 0 0 0 0 0 0 0 0 0 0 0 -0 0 0 -0 -0 0 0 0 0 0 0 0 0 0 0 0 0 0 0 0 0 0
0 0 0 0 0 0 0 0 0 0 0 0 0 0 0 0 0 0 0 0 -0 0 0 0 -0 -0 0 -0 0 -0 0 -0 0 0 0 0 0 0 0 0 0 0 0 0
0 0 0 0 0 0 0 0 0 0 0 0 0 0 0 0 0 0 0 0 0 0 0 0 -0 0 0 0 0 -0 -0 0 -0 -0 0 0 0 0 0 0 0 0 0 0
0 0 0 0 0 0 0 0 0 0 0 0 0 0 0 0 0 0 0 0 0 0 0 -0 0 0 0 0 0 0 -0 0 0 0 -0 -0 0 0 0 0 0 0 0 0
0 0 0 0 0 0 0 0 0 0 0 0 0 0 0 0 0 0 0 0 0 0 0 0 0 -0 -0 0 0 0 0 0 0 0 0 0 -0 -0 0 0 0 0 0 0
0 0 0 0 0 0 0 0 0 0 0 0 0 0 0 0 0 0 0 0 0 0 0 0 -0 -0 -0 -0 0 0 0 0 0 0 0 0 0 0 -0 0 0 0 0 0
0 0 0 0 0 0 0 0 0 0 0 0 0 0 0 0 0 0 0 0 0 0 0 0 0 -0 -0 -0 -0 0 0 0 0 0 0 0 0 0 0 0 -0 0 0 0
0 0 0 0 0 0 0 0 0 0 0 0 0 0 0 0 0 0 0 0 0 0 0 0 0 0 0 0 -0 -0 0 0 0 0 0 0 0 0 0 0 0 0 0 0
0 0 0 0 0 0 0 0 0 0 0 0 0 0 0 0 0 0 0 0 0 0 0 0 0 0 0 0 0 -0 -0 0 0 0 0 0 0 0 0 0 0 0 0 0
0 0 0 0 0 0 0 0 0 0 0 0 0 0 0 0 0 0 0 0 0 0 0 0 0 0 0 0 0 0 0 -0 0 0 0 0 0 0 0 0 0 0 0 0
Wind_Speed_500mb
2 4 3 4 8 12 8 8 9 7 10 14 14 30 43 51 63 65 67 68 68 79 78 73 76 76 74 71 75 75 75 72 64 62 56 59 61 67 70 71 75 78 80 79
2 2 4 7 10 11 10 5 14 11 15 4 37 45 47 51 61 57 61 64 71 70 72 75 77 73 73 67 70 70 72 71 65 63 57 55 60 63 70 75 78 79 85 84
4 4 8 12 11 10 5 6 8 7 9 21 27 39 43 45 57 58 62 59 77 62 68 71 71 69 68 65 62 65 67 66 65 65 63 58 52 58 69 72 75 79 83 90
4 4 5 2 3 4 9 7 9 5 8 18 25 41 18 48 54 55 58 51 64 55 63 65 63 62 60 60 59 60 63 62 63 62 62 60 59 62 67 68 69 76 80 79
6 5 10 4 7 10 7 8 12 6 14 24 34 30 1 50 51 51 49 52 53 49 57 60 60 60 59 56 56 56 60 60 57 58 61 59 57 59 66 79 76 66 68 77
5 5 8 4 7 11 17 7 19 10 6 17 30 11 13 50 50 48 43 55 48 44 53 57 56 57 57 53 54 54 53 54 57 52 55 61 66 59 59 62 69 75 67 63
3 5 14 8 21 20 8 9 22 11 5 5 5 11 34 38 45 42 47 44 43 39 49 54 53 55 54 50 51 48 45 47 49 54 54 56 69 70 61 56 58 64 74 79
6 5 10 29 17 12 11 22 17 12 6 5 12 19 28 34 42 45 47 40 40 40 47 53 52 53 52 50 47 42 43 46 48 48 52 53 58 65 68 64 57 63 64 66
15 9 2 53 4 15 21 23 20 12 4 5 13 22 28 38 43 43 48 42 37 37 40 50 52 51 50 50 44 41 40 44 46 46 47 55 58 56 64 68 66 64 64 68
4 5 13 46 18 21 21 20 20 11 4 5 13 21 26 37 43 39 47 48 36 36 37 48 53 51 43 44 37 40 40 42 45 47 46 48 55 57 60 63 67 64 61 64
7 3 15 31 32 31 27 25 19 12 3 5 13 18 26 37 42 37 44 43 30 33 33 40 50 50 44 39 38 40 40 41 42 44 46 48 49 53 52 52 54 57 58 52
11 38 14 29 50 40 34 29 21 13 5 4 12 17 26 37 41 33 44 44 28 29 29 35 44 43 40 36 36 39 39 42 41 41 42 44 47 47 49 50 45 47 48 50
12 45 15 34 50 41 35 30 22 13 6 3 9 14 25 37 40 30 43 43 26 24 25 30 36 38 35 35 34 36 36 37 37 36 38 42 46 47 48 49 52 55 50 48
32 52 42 60 47 46 36 31 23 14 7 2 7 12 21 34 39 34 40 38 26 19 21 25 30 36 31 34 30 31 30 32 33 33 33 37 41 44 47 51 53 55 56 55
52 35 31 53 51 49 40 33 26 17 10 4 6 11 20 33 42 35 37 38 28 17 18 23 28 33 28 30 29 30 28 29 30 29 29 33 35 39 43 45 48 51 52 52
61 32 46 53 60 54 45 37 26 21 14 8 5 9 16 30 39 36 35 36 28 25 20 22 24 28 31 24 23 24 26 25 25 24 24 27 32 36 41 44 47 51 54 54
69 57 61 62 64 59 49 34 26 21 14 8 6 8 12 22 34 40 35 36 25 21 14 20 19 24 31 22 21 22 22 22 23 21 21 24 29 33 38 40 44 47 51 53
52 39 59 61 69 62 51 40 32 23 15 9 5 8 10 20 37 41 35 33 25 20 12 16 18 19 23 26 21 19 19 19 19 19 19 20 24 28 31 35 38 41 43 45
58 41 59 59 59 56 50 42 34 25 18 12 6 5 9 19 32 39 38 37 31 28 23 14 15 12 16 24 24 19 16 15 15 16 17 17 18 20 24 28 31 34 36 39
61 49 60 61 58 54 50 41 34 26 20 14 8 6 8 12 27 37 42 39 34 31 31 22 14 8 11 18 22 23 16 13 12 12 13 14 14 15 17 20 24 27 30 34
69 69 69 68 64 55 46 43 37 30 22 15 9 6 7 10 24 34 40 41 38 31 28 23 15 13 9 13 16 18 19 14 10 9 10 11 12 12 13 13 16 20 23 26
77 79 76 72 67 60 50 44 37 32 26 19 12 7 7 6 12 28 38 41 40 33 29 26 21 16 11 5 10 12 14 17 12 9 7 8 10 11 11 11 11 13 15 19
83 82 78 76 71 62 55 48 40 32 26 21 14 9 5 4 7 24 37 43 41 37 31 29 25 17 11 8 7 10 11 9 15 14 8 6 6 7 9 9 9 9 9 11
88 84 79 74 68 63 61 54 43 35 29 23 17 10 5 4 7 18 32 38 39 37 32 28 29 23 15 12 10 8 12 10 6 11 17 11 7 5 6 9 9 9 8 7
87 85 84 81 76 67 58 53 47 40 32 26 20 14 8 5 4 8 24 35 37 36 33 28 26 27 22 13 12 13 10 12 12 5 8 18 17 12 8 6 8 10 10 9
92 91 87 81 76 69 63 58 50 43 37 31 24 18 12 8 6 5 15 28 35 35 35 34 31 30 29 23 15 14 18 16 14 15 9 7 17 22 16 12 9 9 11 11
86 86 87 83 75 69 66 60 54 49 41 32 25 19 13 9 7 5 7 20 30 35 36 35 34 32 32 30 27 20 17 19 19 17 18 16 9 14 23 21 17 13 11 12
Wind_Direction_500mb
75 118 190 225 198 180 163 186 157 249 257 289 311 319 331 347 346 348 348 348 349 353 359 355 358 359 4 11 13 10 16 17 16 17 22 21 21 27 31 31 31 32 29 24
310 282 281 280 247 202 211 195 260 274 290 279 332 339 344 352 345 344 345 347 347 357 0 359 360 357 2 9 11 12 18 18 19 18 19 19 25 29 32 30 29 30 34 28
240 317 319 305 228 188 176 185 190 245 243 329 326 331 338 347 347 345 349 348 346 359 1 358 358 357 2 7 10 15 19 20 22 24 23 23 21 28 34 33 34 32 33 36
171 7 356 204 71 136 196 211 203 263 289 309 318 324 327 358 352 353 352 344 351 0 359 356 357 1 3 11 13 16 20 22 23 25 24 24 28 32 35 33 32 36 34 36
128 196 294 150 200 165 164 257 198 230 309 323 334 331 342 354 357 357 354 341 353 5 357 355 359 2 4 9 13 17 20 21 22 23 27 22 24 31 37 37 35 36 36 40
77 125 210 182 175 144 127 286 188 212 285 323 340 12 294 348 358 359 357 347 356 9 358 358 2 5 6 11 14 15 17 19 24 22 29 31 25 22 29 27 32 36 41 42
158 222 284 195 159 147 77 250 174 194 224 300 304 304 328 349 357 359 357 353 360 13 2 360 3 8 8 14 14 9 10 13 16 17 20 35 37 27 32 28 28 30 36 38
87 55 311 158 132 172 172 146 166 172 218 309 328 336 348 356 357 2 3 357 5 10 8 2 4 9 7 17 11 8 12 16 17 19 20 33 34 28 33 40 32 32 32 34
180 211 149 173 187 168 161 157 167 171 189 334 342 352 356 357 360 6 6 356 4 9 7 2 4 10 6 13 10 10 14 20 21 22 23 28 41 28 29 35 40 37 37 38
64 194 191 185 178 175 168 160 156 163 157 352 348 356 1 0 1 10 6 359 359 11 10 3 1 8 15 10 15 16 19 23 23 23 26 32 35 48 36 31 34 37 38 40
255 189 161 199 200 183 168 162 158 163 161 7 357 5 5 2 2 15 2 358 1 12 14 9 360 7 15 16 19 23 25 28 28 26 31 33 33 37 49 39 36 36 34 43
217 186 175 202 185 182 176 167 164 170 166 10 7 11 10 5 7 11 358 359 4 13 14 16 1 7 17 22 21 22 26 30 29 28 33 36 38 39 42 44 47 43 43 39
174 166 167 162 171 176 174 168 166 168 156 45 22 18 13 8 9 12 3 3 6 8 14 14 3 6 16 22 22 22 24 30 30 29 37 37 39 40 44 46 46 46 50 46
159 154 136 162 173 175 177 167 167 167 156 86 32 32 17 10 8 12 5 1 3 1 15 14 11 3 13 22 24 22 24 28 31 32 36 40 39 42 42 44 48 49 49 51
172 178 184 168 167 169 176 172 171 170 167 131 30 28 19 11 9 10 6 6 9 360 15 19 18 7 11 24 23 24 25 30 33 36 36 42 40 45 46 48 51 55 55 51
176 179 169 171 169 172 175 175 176 173 169 141 69 32 22 10 7 9 8 5 6 10 16 17 17 9 5 21 24 30 31 30 32 40 42 43 46 47 49 49 49 50 54 51
168 164 171 174 174 177 179 175 172 172 164 141 91 45 33 8 7 11 12 10 7 11 20 9 9 18 359 7 21 23 25 27 30 37 47 46 47 47 50 50 50 49 49 50
200 194 188 183 174 174 174 176 172 170 163 146 99 50 29 13 13 10 10 9 13 22 16 16 10 6 4 12 10 14 19 29 31 30 38 46 47 49 50 52 52 52 50 49
190 186 181 179 175 175 172 172 169 168 164 153 120 63 32 22 15 12 10 13 12 16 21 21 16 349 31 29 5 358 6 22 31 29 29 36 45 49 51 51 54 54 53 50
179 180 175 174 174 175 171 172 170 169 168 160 145 88 52 24 18 16 12 18 10 6 3 12 3 346 26 38 20 351 350 6 21 31 28 24 35 44 50 52 52 55 54 53
177 175 175 175 175 175 178 174 171 172 169 167 151 120 77 37 16 13 13 15 14 12 6 9 5 28 5 15 19 10 343 344 2 15 31 23 19 28 35 43 50 49 53 52
178 177 177 178 176 175 177 175 173 175 171 172 166 140 92 82 27 14 13 13 13 12 7 7 18 9 359 8 355 15 9 338 336 349 1 21 14 8 15 24 31 44 45 49
180 179 180 179 180 178 176 178 178 177 175 174 167 152 121 101 39 19 16 15 11 9 9 6 12 2 348 338 338 353 3 12 335 323 329 339 8 7 358 358 7 12 30 36
181 181 182 181 181 181 181 179 180 178 178 178 172 171 145 86 44 26 18 15 12 12 14 10 5 358 345 327 325 338 340 341 7 331 314 308 309 320 339 336 336 341 344 355
183 181 183 182 184 187 185 181 180 181 183 184 177 172 163 136 115 43 22 18 16 15 18 17 12 6 358 339 317 319 310 321 318 345 323 308 302 296 291 298 315 318 319 321
183 185 186 188 188 185 185 187 186 183 185 187 185 178 167 158 144 101 35 20 21 20 21 21 18 14 10 4 350 337 333 317 313 309 303 306 301 298 292 284 283 294 301 303
184 188 187 190 191 190 190 190 187 187 185 187 187 182 177 168 160 145 64 29 26 25 25 25 24 21 15 12 10 1 345 336 318 308 299 290 281 290 294 290 285 279 280 288
Wind_Speed_850mb
2 4 3 4 8 12 8 8 9 7 10 14 14 30 43 51 63 65 67 68 68 79 78 73 76 76 74 71 75 75 75 72 64 62 56 59 61 67 70 71 75 78 80 79
2 2 4 7 10 11 10 5 14 11 15 4 37 45 47 51 61 57 61 64 71 70 72 75 77 73 73 67 70 70 72 71 65 63 57 55 60 63 70 75 78 79 85 84
4 4 8 12 11 10 5 6 8 7 9 21 27 39 43 45 57 58 62 59 77 62 68 71 71 69 68 65 62 65 67 66 65 65 63 58 52 58 69 72 75 79 83 90
4 4 5 2 3 4 9 7 9 5 8 18 25 41 18 48 54 55 58 51 64 55 63 65 63 62 60 60 59 60 63 62 63 62 62 60 59 62 67 68 69 76 80 79
6 5 10 4 7 10 7 8 12 6 14 24 34 30 1 50 51 51 49 52 53 49 57 60 60 60 59 56 56 56 60 60 57 58 61 59 57 59 66 79 76 66 68 77
5 5 8 4 7 11 17 7 19 10 6 17 30 11 13 50 50 48 43 55 48 44 53 57 56 57 57 53 54 54 53 54 57 52 55 61 66 59 59 62 69 75 67 63
3 5 14 8 21 20 8 9 22 11 5 5 5 11 34 38 45 42 47 44 43 39 49 54 53 55 54 50 51 48 45 47 49 54 54 56 69 70 61 56 58 64 74 79
6 5 10 29 17 12 11 22 17 12 6 5 12 19 28 34 42 45 47 40 40 40 47 53 52 53 52 50 47 42 43 46 48 48 52 53 58 65 68 64 57 63 64 66
15 9 2 53 4 15 21 23 20 12 4 5 13 22 28 38 43 43 48 42 37 37 40 50 52 51 50 50 44 41 40 44 46 46 47 55 58 56 64 68 66 64 64 68
4 5 13 46 18 21 21 20 20 11 4 5 13 21 26 37 43 39 47 48 36 36 37 48 53 51 43 44 37 40 40 42 45 47 46 48 55 57 60 63 67 64 61 64
7 3 15 31 32 31 27 25 19 12 3 5 13 18 26 37 42 37 44 43 30 33 33 40 50 50 44 39 38 40 40 41 42 44 46 48 49 53 52 52 54 57 58 52
11 38 14 29 50 40 34 29 21 13 5 4 12 17 26 37 41 33 44 44 28 29 29 35 44 43 40 36 36 39 39 42 41 41 42 44 47 47 49 50 45 47 48 50
12 45 15 34 50 41 35 30 22 13 6 3 9 14 25 37 40 30 43 43 26 24 25 30 36 38 35 35 34 36 36 37 37 36 38 42 46 47 48 49 52 55 50 48
32 52 42 60 47 46 36 31 23 14 7 2 7 12 21 34 39 34 40 38 26 19 21 25 30 36 31 34 30 31 30 32 33 33 33 37 41 44 47 51 53 55 56 55
52 35 31 53 51 49 40 33 26 17 10 4 6 11 20 33 42 35 37 38 28 17 18 23 28 33 28 30 29 30 28 29 30 29 29 33 35 39 43 45 48 51 52 52
61 32 46 53 60 54 45 37 26 21 14 8 5 9 16 30 39 36 35 36 28 25 20 22 24 28 31 24 23 24 26 25 25 24 24 27 32 36 41 44 47 51 54 54
69 57 61 62 64 59 49 34 26 21 14 8 6 8 12 22 34 40 35 36 25 21 14 20 19 24 31 22 21 22 22 22 23 21 21 24 29 33 38 40 44 47 51 53
52 39 59 61 69 62 51 40 32 23 15 9 5 8 10 20 37 41 35 33 25 20 12 16 18 19 23 26 21 19 19 19 19 19 19 20 24 28 31 35 38 41 43 45
58 41 59 59 59 56 50 42 34 25 18 12 6 5 9 19 32 39 38 37 31 28 23 14 15 12 16 24 24 19 16 15 15 16 17 17 18 20 24 28 31 34 36 39
61 49 60 61 58 54 50 41 34 26 20 14 8 6 8 12 27 37 42 39 34 31 31 22 14 8 11 18 22 23 16 13 12 12 13 14 14 15 17 20 24 27 30 34
69 69 69 68 64 55 46 43 37 30 22 15 9 6 7 10 24 34 40 41 38 31 28 23 15 13 9 13 16 18 19 14 10 9 10 11 12 12 13 13 16 20 23 26
77 79 76 72 67 60 50 44 37 32 26 19 12 7 7 6 12 28 38 41 40 33 29 26 21 16 11 5 10 12 14 17 12 9 7 8 10 11 11 11 11 13 15 19
83 82 78 76 71 62 55 48 40 32 26 21 14 9 5 4 7 24 37 43 41 37 31 29 25 17 11 8 7 10 11 9 15 14 8 6 6 7 9 9 9 9 9 11
88 84 79 74 68 63 61 54 43 35 29 23 17 10 5 4 7 18 32 38 39 37 32 28 29 23 15 12 10 8 12 10 6 11 17 11 7 5 6 9 9 9 8 7
87 85 84 81 76 67 58 53 47 40 32 26 20 14 8 5 4 8 24 35 37 36 33 28 26 27 22 13 12 13 10 12 12 5 8 18 17 12 8 6 8 10 10 9
92 91 87 81 76 69 63 58 50 43 37 31 24 18 12 8 6 5 15 28 35 35 35 34 31 30 29 23 15 14 18 16 14 15 9 7 17 22 16 12 9 9 11 11
86 86 87 83 75 69 66 60 54 49 41 32 25 19 13 9 7 5 7 20 30 35 36 35 34 32 32 30 27 20 17 19 19 17 18 16 9 14 23 21 17 13 11 12
Wind_Direction_850mb
75 118 190 225 198 180 163 186 157 249 257 289 311 319 331 347 346 348 348 348 349 353 359 355 358 359 4 11 13 10 16 17 16 17 22 21 21 27 31 31 31 32 29 24
310 282 281 280 247 202 211 195 260 274 290 279 332 339 344 352 345 344 345 347 347 357 0 359 360 357 2 9 11 12 18 18 19 18 19 19 25 29 32 30 29 30 34 28
240 317 319 305 228 188 176 185 190 245 243 329 326 331 338 347 347 345 349 348 346 359 1 358 358 357 2 7 10 15 19 20 22 24 23 23 21 28 34 33 34 32 33 36
171 7 356 204 71 136 196 211 203 263 289 309 318 324 327 358 352 353 352 344 351 0 359 356 357 1 3 11 13 16 20 22 23 25 24 24 28 32 35 33 32 36 34 36
128 196 294 150 200 165 164 257 198 230 309 323 334 331 342 354 357 357 354 341 353 5 357 355 359 2 4 9 13 17 20 21 22 23 27 22 24 31 37 37 35 36 36 40
77 125 210 182 175 144 127 286 188 212 285 323 340 12 294 348 358 359 357 347 356 9 358 358 2 5 6 11 14 15 17 19 24 22 29 31 25 22 29 27 32 36 41 42
158 222 284 195 159 147 77 250 174 194 224 300 304 304 328 349 357 359 357 353 360 13 2 360 3 8 8 14 14 9 10 13 16 17 20 35 37 27 32 28 28 30 36 38
87 55 311 158 132 172 172 146 166 172 218 309 328 336 348 356 357 2 3 357 5 10 8 2 4 9 7 17 11 8 12 16 17 19 20 33 34 28 33 40 32 32 32 34
180 211 149 173 187 168 161 157 167 171 189 334 342 352 356 357 360 6 6 356 4 9 7 2 4 10 6 13 10 10 14 20 21 22 23 28 41 28 29 35 40 37 37 38
64 194 191 185 178 175 168 160 156 163 157 352 348 356 1 0 1 10 6 359 359 11 10 3 1 8 15 10 15 16 19 23 23 23 26 32 35 48 36 31 34 37 38 40
255 189 161 199 200 183 168 162 158 163 161 7 357 5 5 2 2 15 2 358 1 12 14 9 360 7 15 16 19 23 25 28 28 26 31 33 33 37 49 39 36 36 34 43
217 186 175 202 185 182 176 167 164 170 166 10 7 11 10 5 7 11 358 359 4 13 14 16 1 7 17 22 21 22 26 30 29 28 33 36 38 39 42 44 47 43 43 39
174 166 167 162 171 176 174 168 166 168 156 45 22 18 13 8 9 12 3 3 6 8 14 14 3 6 16 22 22 22 24 30 30 29 37 37 39 40 44 46 46 46 50 46
159 154 136 162 173 175 177 167 167 167 156 86 32 32 17 10 8 12 5 1 3 1 15 14 11 3 13 22 24 22 24 28 31 32 36 40 39 42 42 44 48 49 49 51
172 178 184 168 167 169 176 172 171 170 167 131 30 28 19 11 9 10 6 6 9 360 15 19 18 7 11 24 23 24 25 30 33 36 36 42 40 45 46 48 51 55 55 51
176 179 169 171 169 172 175 175 176 173 169 141 69 32 22 10 7 9 8 5 6 10 16 17 17 9 5 21 24 30 31 30 32 40 42 43 46 47 49 49 49 50 54 51
168 164 171 174 174 177 179 175 172 172 164 141 91 45 33 8 7 11 12 10 7 11 20 9 9 18 359 7 21 23 25 27 30 37 47 46 47 47 50 50 50 49 49 50
200 194 188 183 174 174 174 176 172 170 163 146 99 50 29 13 13 10 10 9 13 22 16 16 10 6 4 12 10 14 19 29 31 30 38 46 47 49 50 52 52 52 50 49
190 186 181 179 175 175 172 172 169 168 164 153 120 63 32 22 15 12 10 13 12 16 21 21 16 349 31 29 5 358 6 22 31 29 29 36 45 49 51 51 54 54 53 50
179 180 175 174 174 175 171 172 170 169 168 160 145 88 52 24 18 16 12 18 10 6 3 12 3 346 26 38 20 351 350 6 21 31 28 24 35 44 50 52 52 55 54 53
177 175 175 175 175 175 178 174 171 172 169 167 151 120 77 37 16 13 13 15 14 12 6 9 5 28 5 15 19 10 343 344 2 15 31 23 19 28 35 43 50 49 53 52
178 177 177 178 176 175 177 175 173 175 171 172 166 140 92 82 27 14 13 13 13 12 7 7 18 9 359 8 355 15 9 338 336 349 1 21 14 8 15 24 31 44 45 49
180 179 180 179 180 178 176 178 178 177 175 174 167 152 121 101 39 19 16 15 11 9 9 6 12 2 348 338 338 353 3 12 335 323 329 339 8 7 358 358 7 12 30 36
181 181 182 181 181 181 181 179 180 178 178 178 172 171 145 86 44 26 18 15 12 12 14 10 5 358 345 327 325 338 340 341 7 331 314 308 309 320 339 336 336 341 344 355
183 181 183 182 184 187 185 181 180 181 183 184 177 172 163 136 115 43 22 18 16 15 18 17 12 6 358 339 317 319 310 321 318 345 323 308 302 296 291 298 315 318 319 321
183 185 186 188 188 185 185 187 186 183 185 187 185 178 167 158 144 101 35 20 21 20 21 21 18 14 10 4 350 337 333 317 313 309 303 306 301 298 292 284 283 294 301 303
184 188 187 190 191 190 190 190 187 187 185 187 187 182 177 168 160 145 64 29 26 25 25 25 24 21 15 12 10 1 345 336 318 308 299 290 281 290 294 290 285 279 280 288